Location: Earls Croome
(52.0667°N, 2.2000°W)
Time: 05:33:51
(UTC+00:00)

Cosmos 2298 Rocket - Pass Details

Date: 17 November 2019
Orbit: 777 x 783 km, 74.0° (Epoch: 09 December)

Event Time Altitude Azimuth Distance (km) Brightness Sun altitude
Rises 06:20:27 0° 215° (SW) 3,254 7.1 -10.8°
Reaches altitude 10° 06:22:52 10° 219° (SW) 2,329 6.3 -10.5°
Maximum altitude 06:28:06 61° 299° (WNW) 885 4.1 -9.7°
Drops below altitude 10° 06:33:22 10° 20° (NNE) 2,341 6.5 -9.0°
Sets 06:35:48 0° 24° (NNE) 3,272 7.3 -8.6°
